This demonstration page uses our WeatherBlox Daily Observations layout. Learn more.

Left ArrowRight Arrow

47.50024, -111.30081

Hourly Observations for May 9, 2022

Temp ( °F °C ) Dew Point ( °F °C ) Humidity (%) Winds ( mph kmh ) Pressure ( in mb ) Visibility ( mi km ) Precip ( " mm )
12:53 am 00:53 Partly Cloudy 37 2.8 18 -7.8 46 46 WSW 8 13 29.56 1001 10 16 0.00 0.00
1:53 am 01:53 Clear 36 2.2 19 -7.2 50 50 W 10 17 29.55 1001 10 16 0.00 0.00
2:53 am 02:53 Clear 37 2.8 18 -7.8 46 46 W 13 20 29.55 1001 10 16 0.00 0.00
3:53 am 03:53 Clear 35 1.7 18 -7.8 50 50 WSW 10 17 29.58 1002 10 16 0.00 0.00
4:53 am 04:53 Clear 32 0 18 -7.8 56 56 WSW 9 15 29.59 1002 10 16 0.00 0.00
5:53 am 05:53 Clear 30 -1.1 18 -7.8 61 61 SW 9 15 29.61 1003 10 16 0.00 0.00
6:53 am 06:53 Sunny 30 -1.1 19 -7.2 64 64 SSW 9 15 29.62 1003 10 16 0.00 0.00
7:53 am 07:53 Sunny 37 2.8 20 -6.7 50 50 SW 16 26 29.62 1003 10 16 0.00 0.00
8:53 am 08:53 Sunny 42 5.6 19 -7.2 40 40 SW 15 24 29.62 1003 10 16 0.00 0.00
9:53 am 09:53 Mostly Sunny 45 7.2 16 -8.9 31 31 WSW 18 30 29.62 1003 10 16 0.00 0.00
10:53 am 10:53 Partly Cloudy 46 7.8 15 -9.4 29 29 WSW 14 22 29.61 1003 10 16 0.00 0.00
11:53 am 11:53 Mostly Sunny 49 9.4 16 -8.9 27 27 WSW 17 28 29.60 1002 10 16 0.00 0.00
12:53 pm 12:53 Cloudy 50 10 16 -8.9 26 26 WSW 15 24 29.60 1002 10 16 0.00 0.00
1:53 pm 13:53 Mostly Cloudy 49 9.4 15 -9.4 26 26 W 16 26 29.60 1003 10 16 0.00 0.00
2:53 pm 14:53 Mostly Cloudy 51 10.6 13 -10.6 22 22 WSW 20 31 29.60 1003 10 16 0.00 0.00
3:53 pm 15:53 Mostly Cloudy 54 12.2 14 -10 20 20 W 24 39 29.61 1003 10 16 0.00 0.00
4:53 pm 16:53 Mostly Cloudy 52 11.1 15 -9.4 23 23 WSW 16 26 29.65 1004 10 16 0.00 0.00
5:53 pm 17:53 Partly Cloudy 52 11.1 15 -9.4 23 23 W 22 35 29.68 1005 10 16 0.00 0.00
6:53 pm 18:53 Sunny 48 8.9 17 -8.3 29 29 W 22 35 29.71 1006 10 16 0.00 0.00
7:53 pm 19:53 Sunny 45 7.2 18 -7.8 34 34 W 15 24 29.73 1007 10 16 0.00 0.00
8:53 pm 20:53 Clear 40 4.4 19 -7.2 43 43 WSW 12 19 29.76 1008 10 16 0.00 0.00
9:53 pm 21:53 Clear 36 2.2 20 -6.7 52 52 WSW 12 19 29.79 1009 10 16 0.00 0.00
10:53 pm 22:53 Clear 37 2.8 21 -6.1 52 52 WSW 14 22 29.80 1009 10 16 0.00 0.00
11:53 pm 23:53 Clear 34 1.1 22 -5.6 61 61 SW 9 15 29.82 1010 10 16 0.00 0.00

Powered by AerisWeather